Effective Sunday, March 17, 2024, the National Weather Service National Data Buoy Center will discontinue its Dial-A-Buoy Interactive Voice Response system. For more information, see Service Change Notice 24-06 (PDF).

Station MRHO1 - 9063079 - Marblehead, OH Image indicating link to RSS feed of recent meteorological observations for station MRHO1


Conditions at MRHO1 as of
(5:00 pm EST)
2200 GMT on 02/21/2024:
     

Click on the graph icon in the table below to see a time series plot of the last five days of that observation.

5-day plot - Wind Direction Wind Direction (WDIR): S ( 190 deg true )
5-day plot - Wind Speed Wind Speed (WSPD): 5.1 kts
5-day plot - Wind Gust Wind Gust (GST): 11.1 kts
5-day plot - Atmospheric Pressure Atmospheric Pressure (PRES):29.91 in
5-day plot - Pressure Tendency Pressure Tendency (PTDY):-0.07 in ( Falling )
5-day plot - Air Temperature Air Temperature (ATMP): 55.6 °F
5-day plot - Dew Point Dew Point (DEWP): 24.6 °F
5-day plot - Wind Speed at 10 Meters Wind Speed at 10 meters (WSPD10M): 5.8 kts
5-day plot - Wind Speed at 20 Meters Wind Speed at 20 meters (WSPD20M): 5.8 kts
5-day plot -  Wind Speed, Wind Gust and Atmospheric Pressure Combined plot of Wind Speed, Gust, and Air Pressure
NOS Water Level Observation Network Water Level
Previous observations
TIME
(EST)
5-day plot - Wind Direction
WDIR
 
5-day plot - Wind Speed
WSPD
kts
5-day plot - Wind Gust
GST
kts
5-day plot - Wave Height
WVHT
ft
5-day plot - Dominant Wave Period
DPD
sec
5-day plot - Average Wave Period
APD
sec
5-day plot - Mean Wave Direction
MWD
 
5-day plot - Atmospheric Pressure
PRES
in
5-day plot - Pressure Tendency
PTDY
in
5-day plot - Air Temperature
ATMP
°F
5-day plot - Water Temperature
WTMP
°F
5-day plot - Dew Point
DEWP
°F
5-day plot - Salinity
SAL
psu
5-day plot - Visibility
VIS
nmi
5-day plot - Tide (above MLLW)
TIDE
ft
2024-02-21 04:54 pm S 5.1 9.9----29.91- 55.2- 24.4---
2024-02-21 04:48 pm S 5.1 11.1----29.92- 55.2- 24.1---
2024-02-21 04:42 pm S 7.0 11.1----29.92- 55.6- 23.9---
2024-02-21 04:36 pm S 7.0 12.0----29.92- 56.1- 23.5---
2024-02-21 04:30 pmSSW 7.0 13.0----29.93- 56.3- 23.5---
2024-02-21 04:24 pm S 8.0 13.0----29.92- 56.1- 23.4---
2024-02-21 04:18 pm S 8.0 14.0----29.93- 56.7- 23.5---
2024-02-21 04:12 pm S 8.0 15.0----29.93- 57.2- 23.0---
2024-02-21 04:06 pmSSW 8.0 14.0----29.92- 57.4- 22.8---
2024-02-21 04:00 pm S 8.9 17.1----29.93-0.10 57.4- 23.0---
2024-02-21 03:54 pm S 7.0 15.0----29.93- 57.4- 23.4---
2024-02-21 03:48 pm S 8.9 15.0----29.93- 57.4- 24.3---
2024-02-21 03:42 pm S 8.0 14.0----29.93- 57.2- 24.3---
2024-02-21 03:36 pm S 11.1 17.1----29.93- 57.0- 23.7---
2024-02-21 03:30 pm S 8.9 13.0----29.93- 57.4- 23.7---
2024-02-21 03:24 pm S 8.0 12.0----29.94- 57.0- 23.9---
2024-02-21 03:18 pm S 8.0 15.0----29.94- 57.0- 23.9---
2024-02-21 03:12 pmSSW 8.0 13.0----29.95- 56.8- 24.1---
2024-02-21 03:06 pm S 8.0 12.0----29.95- 56.5- 24.3---
2024-02-21 03:00 pm S 6.0 13.0----29.95-0.11 56.1- 24.6---
2024-02-21 02:54 pmSSW 8.9 14.0----29.96- 56.3- 23.5---
2024-02-21 02:48 pmSSW 9.9 15.0----29.96- 56.7- 23.0---
2024-02-21 02:42 pmSSW 8.0 15.0----29.96- 57.6- 23.0---
2024-02-21 02:36 pmSSW 8.9 15.9----29.96- 57.6- 22.6---
2024-02-21 02:30 pmSSW 11.1 15.9----29.97- 57.0- 22.5---
2024-02-21 02:24 pmSSW 7.0 15.0----29.97- 56.3- 23.0---
2024-02-21 02:18 pm S 7.0 12.0----29.97- 56.3- 23.4---
2024-02-21 02:12 pm S 7.0 9.9----29.97- 56.1- 24.3---
2024-02-21 02:06 pm S 8.9 12.0----29.98- 55.6- 23.5---
2024-02-21 02:00 pm S 8.0 14.0----29.98-0.11 55.4- 23.4---
2024-02-21 01:54 pm S 7.0 12.0----29.98- 55.2- 23.4---
2024-02-21 01:48 pm S 8.0 11.1----29.99- 55.2- 23.2---
2024-02-21 01:42 pm S 6.0 9.9----30.00- 54.5- 23.2---
2024-02-21 01:36 pm S 6.0 11.1----30.00- 55.0- 22.8---
2024-02-21 01:30 pmSSW 8.9 12.0----30.01- 54.7- 22.1---
2024-02-21 01:24 pm S 6.0 14.0----30.01- 55.4- 21.9---
2024-02-21 01:18 pmSSW 8.0 13.0----30.01- 55.4- 21.2---
2024-02-21 01:12 pmSSW 8.0 12.0----30.02- 54.5- 21.9---
2024-02-21 01:06 pmSSW 7.0 11.1----30.02- 54.3- 22.1---
2024-02-21 01:00 pmSSW 7.0 11.1----30.03-0.07 54.0- 21.9---
2024-02-21 12:54 pm S 5.1 13.0----30.03- 53.6- 21.6---
2024-02-21 12:48 pmSSW 6.0 11.1----30.03- 53.4- 21.0---
2024-02-21 12:42 pmSSW 7.0 14.0----30.04- 53.6- 21.2---
2024-02-21 12:36 pmSSW 8.0 12.0----30.04- 53.4- 21.6---
2024-02-21 12:30 pmSSW 7.0 12.0----30.04- 53.8- 21.6---
2024-02-21 12:24 pmSSW 7.0 12.0----30.04- 53.6- 21.7---
2024-02-21 12:18 pm S 6.0 12.0----30.05- 52.9- 21.7---
2024-02-21 12:12 pm S 8.0 12.0----30.05- 52.2- 21.7---
2024-02-21 12:06 pm S 5.1 8.9----30.06- 51.6- 21.9---
2024-02-21 12:00 pm S 5.1 11.1----30.06-0.05 51.3- 22.3---
2024-02-21 11:54 am S 5.1 9.9----30.06- 50.9- 22.6---
2024-02-21 11:48 am S 4.1 11.1----30.06- 50.0- 22.1---
2024-02-21 11:42 am S 6.0 12.0----30.07- 50.4- 21.9---
2024-02-21 11:36 am S 8.0 11.1----30.07- 50.0- 21.7---
2024-02-21 11:30 am S 5.1 11.1----30.08- 49.6- 22.1---
2024-02-21 11:24 am S 8.0 9.9----30.08- 48.6- 21.7---
2024-02-21 11:18 am S 5.1 8.0----30.08- 47.7- 21.7---
2024-02-21 11:12 am S 5.1 8.0----30.08- 46.9- 21.4---
2024-02-21 11:06 am S 5.1 9.9----30.08- 46.6- 21.4---
2024-02-21 11:00 am S 5.1 9.9----30.09-0.03 46.0- 21.2---
2024-02-21 10:54 am S 6.0 8.9----30.09- 45.7- 21.0---
2024-02-21 10:48 am S 6.0 8.9----30.09- 45.5- 20.8---
2024-02-21 10:42 am S 6.0 12.0----30.10- 45.3- 20.5---
2024-02-21 10:36 am S 6.0 11.1----30.10- 45.0- 20.3---
2024-02-21 10:30 am S 5.1 9.9----30.10- 44.6- 20.1---
2024-02-21 10:24 am S 6.0 9.9----30.10- 44.4- 19.9---
2024-02-21 10:18 am S 6.0 12.0----30.11- 44.1- 19.9---
2024-02-21 10:12 amSSW 8.0 12.0----30.11- 43.9- 20.3---
2024-02-21 10:06 am S 7.0 9.9----30.10- 43.3- 20.1---
2024-02-21 10:00 am S 8.0 9.9----30.10-0.02------
2024-02-21 09:54 am S 6.0 11.1----30.11-------
2024-02-21 09:48 am S 7.0 9.9----30.11- 43.0- 19.9---
2024-02-21 09:42 am S 6.0 9.9----30.11- 43.0- 20.3---
2024-02-21 09:36 am S 7.0 12.0----30.11- 43.0- 19.8---
2024-02-21 09:30 am S 6.0 9.9----30.11- 42.8- 19.8---
2024-02-21 09:24 am S 6.0 11.1----30.11- 42.4- 19.4---
2024-02-21 09:18 am S 5.1 11.1----30.11- 42.4- 19.2---
2024-02-21 09:12 am S 7.0 9.9----30.11- 42.3- 18.7---
2024-02-21 09:06 amSSW 6.0 11.1----30.11- 42.6- 19.0---
2024-02-21 09:00 am S 8.0 12.0----30.11-0.01 41.9- 18.9---
2024-02-21 08:54 am S 7.0 9.9----30.11- 41.2- 18.9---
2024-02-21 08:48 am S 7.0 12.0----30.11- 41.0- 18.3---
2024-02-21 08:42 am S 7.0 9.9----30.12- 40.8- 18.3---
2024-02-21 08:36 am S 7.0 13.0----30.12- 40.6- 18.3---
2024-02-21 08:30 am S 7.0 13.0----30.12- 40.3- 18.1---
2024-02-21 08:24 am S 7.0 11.1----30.12- 39.9- 18.5---
2024-02-21 08:18 am S 6.0 9.9----30.12- 39.2- 18.5---
2024-02-21 08:12 am S 6.0 12.0----30.12- 39.0- 18.5---
2024-02-21 08:06 am S 7.0 12.0----30.12- 38.7- 18.3---
2024-02-21 08:00 am S 8.0 12.0----30.12-0.02 38.5- 18.3---
2024-02-21 07:54 am S 7.0 11.1----30.12- 38.3- 18.3---
2024-02-21 07:48 am S 8.0 11.1----30.12- 38.1- 18.1---
2024-02-21 07:42 am S 6.0 9.9----30.12- 37.9- 18.0---
2024-02-21 07:36 am S 6.0 11.1----30.12- 37.9- 18.0---
2024-02-21 07:30 amSSW 6.0 9.9----30.12- 37.9- 17.8---
2024-02-21 07:24 amSSW 7.0 9.9----30.12- 37.9- 17.8---
2024-02-21 07:18 amSSW 7.0 12.0----30.12- 38.1- 17.6---
2024-02-21 07:12 amSSW 6.0 11.1----30.12- 37.9- 17.6---
2024-02-21 07:06 amSSW 7.0 9.9----30.12- 37.9- 17.4---
2024-02-21 07:00 am S 6.0 8.9----30.12-0.01 37.9- 17.6---
2024-02-21 06:54 amSSW 7.0 8.9----30.12- 37.8- 17.2---
2024-02-21 06:48 am S 7.0 8.9----30.12- 37.8- 17.4---
2024-02-21 06:42 am S 6.0 11.1----30.12- 37.8- 17.4---
2024-02-21 06:36 am S 7.0 11.1----30.13- 37.9- 17.2---
2024-02-21 06:30 amSSW 7.0 9.9----30.13- 37.9- 17.1---
2024-02-21 06:24 am S 8.0 12.0----30.13- 38.1- 17.1---
2024-02-21 06:18 am S 8.0 11.1----30.13- 38.1- 17.2---
2024-02-21 06:12 am S 6.0 9.9----30.13- 37.9- 17.6---
2024-02-21 06:06 am S 7.0 9.9----30.13- 37.8- 17.6---
2024-02-21 06:00 am S 5.1 8.9----30.13-0.01 37.4- 17.6---
2024-02-21 05:54 am S 5.1 8.0----30.13- 37.2- 17.4---
2024-02-21 05:48 am S 6.0 8.9----30.13- 37.6- 17.4---
2024-02-21 05:42 am S 6.0 9.9----30.13- 37.6- 17.1---
2024-02-21 05:36 am S 5.1 8.9----30.13- 37.8- 17.1---
2024-02-21 05:30 am S 6.0 8.9----30.14- 37.9- 17.1---
2024-02-21 05:24 am S 5.1 8.0----30.14- 37.9- 16.9---
2024-02-21 05:18 am S 5.1 8.9----30.14- 38.1- 17.1---
2024-02-21 05:12 am S 6.0 8.9----30.14- 38.1- 16.9---
2024-02-21 05:06 am S 5.1 8.0----30.14- 38.1- 17.1---
2024-02-21 05:00 am S 6.0 8.9----30.14-0.02 38.3- 16.9---
2024-02-21 04:54 am S 5.1 8.0----30.14- 38.1- 17.1---
2024-02-21 04:48 am S 5.1 8.0----30.14- 38.1- 16.9---
2024-02-21 04:42 amSSW 5.1 8.0----30.14- 38.1- 17.1---
2024-02-21 04:36 amSSW 6.0 8.0----30.14- 38.1- 16.9---
2024-02-21 04:30 amSSW 5.1 8.0----30.14- 38.1- 16.9---
2024-02-21 04:24 amSSW 5.1 8.9----30.14- 38.3- 16.7---
2024-02-21 04:18 amSSW 6.0 8.9----30.14- 38.5- 16.7---
2024-02-21 04:12 amSSW 5.1 8.0----30.14- 38.3- 16.7---
2024-02-21 04:06 amSSW 5.1 8.0----30.14- 38.3- 17.1---
2024-02-21 04:00 amSSW 4.1 8.9----30.14-0.04 38.3- 16.9---
2024-02-21 03:54 amSSW 4.1 6.0----30.14- 38.3- 17.1---
2024-02-21 03:48 amSSW 4.1 5.1----30.14- 37.9- 17.1---
2024-02-21 03:42 am S 2.9 5.1----30.14- 37.9- 17.2---
2024-02-21 03:36 am S 2.9 5.1----30.14- 38.1- 17.2---
2024-02-21 03:30 am S 2.9 6.0----30.14- 38.1- 17.1---
2024-02-21 03:24 am S 2.9 5.1----30.14- 38.1- 16.9---
2024-02-21 03:18 am S 2.9 5.1----30.14- 38.3- 16.9---
2024-02-21 03:12 am S 2.9 5.1----30.14- 38.5- 17.1---
2024-02-21 03:06 am S 1.9 5.1----30.14- 38.5- 17.1---
2024-02-21 03:00 am S 2.9 5.1----30.14-0.04 38.5- 17.1---
2024-02-21 02:54 am S 4.1 6.0----30.14- 38.7- 17.2---
2024-02-21 02:48 am S 4.1 7.0----30.14- 38.8- 17.4---
2024-02-21 02:42 am S 2.9 7.0----30.15- 38.5- 17.6---
2024-02-21 02:36 am S 2.9 6.0----30.15- 38.5- 17.4---
2024-02-21 02:30 am S 4.1 6.0----30.15- 38.5- 17.4---
2024-02-21 02:24 am S 4.1 5.1----30.15- 38.5- 17.4---
2024-02-21 02:18 am S 2.9 7.0----30.15- 38.7- 17.4---
2024-02-21 02:12 am S 5.1 7.0----30.16- 39.0- 17.4---
2024-02-21 02:06 am S 2.9 6.0----30.16- 38.7- 17.6---
2024-02-21 02:00 am S 4.1 7.0----30.16-0.03------
2024-02-21 01:54 am S 4.1 7.0----30.16-------
2024-02-21 01:48 am S 4.1 5.1----30.16- 38.3- 18.0---
2024-02-21 01:42 am S 5.1 7.0----30.16- 38.5- 18.1---
2024-02-21 01:36 am S 4.1 7.0----30.16- 38.3- 18.1---
2024-02-21 01:30 am S 4.1 7.0----30.16- 38.3- 18.7---
2024-02-21 01:24 am S 5.1 7.0----30.16- 38.3- 18.7---
2024-02-21 01:18 am S 4.1 6.0----30.16- 38.1- 18.9---
2024-02-21 01:12 am S 2.9 6.0----30.17- 37.8- 18.5---
2024-02-21 01:06 am S 5.1 8.0----30.17- 38.1- 18.3---
2024-02-21 01:00 am S 4.1 6.0----30.17-0.03 38.5- 18.3---
2024-02-21 12:54 am S 5.1 7.0----30.17- 38.5- 18.0---
2024-02-21 12:48 am S 4.1 8.0----30.17- 38.1- 18.7---
2024-02-21 12:42 am S 4.1 5.1----30.17- 37.9- 19.0---
2024-02-21 12:36 am S 2.9 6.0----30.18- 37.9- 19.2---
2024-02-21 12:30 am S 2.9 6.0----30.18- 37.8- 19.4---
2024-02-21 12:24 am S 4.1 6.0----30.18- 37.6- 19.6---
2024-02-21 12:18 am S 2.9 4.1----30.18- 37.4- 19.9---
2024-02-21 12:12 am S 2.9 4.1----30.18- 36.9- 19.9---
2024-02-21 12:06 am S 2.9 5.1----30.18- 36.7- 20.1---
2024-02-21 12:00 am S 2.9 5.1----30.18-0.03 36.1- 20.1---
2024-02-20 11:54 pm S 2.9 4.1----30.18- 36.1- 20.1---
2024-02-20 11:48 pm S 2.9 4.1----30.19- 36.1- 20.1---
2024-02-20 11:42 pm S 2.9 4.1----30.19- 36.1- 20.3---
2024-02-20 11:36 pm S 1.9 4.1----30.19- 36.3- 20.3---
2024-02-20 11:30 pm S 2.9 5.1----30.19- 36.5- 20.7---
2024-02-20 11:24 pm S 2.9 4.1----30.19- 36.7- 21.0---
2024-02-20 11:18 pm S 2.9 4.1----30.19- 36.7- 21.7---
2024-02-20 11:12 pm S 2.9 4.1----30.19- 36.0- 21.9---
2024-02-20 11:06 pm S 2.9 4.1----30.19- 35.4- 22.1---
2024-02-20 11:00 pm S 2.9 4.1----30.19-0.02 35.4- 22.3---
2024-02-20 10:54 pm S 1.9 2.9----30.19- 35.6- 23.0---
2024-02-20 10:48 pm S 1.9 2.9----30.19- 35.2- 23.4---
2024-02-20 10:42 pm S 2.9 4.1----30.19- 35.4- 24.1---
2024-02-20 10:36 pm S 1.9 4.1----30.19- 35.1- 24.4---
2024-02-20 10:30 pm S 2.9 4.1----30.20- 34.3- 24.3---
2024-02-20 10:24 pm S 2.9 4.1----30.20- 34.0- 24.4---
2024-02-20 10:18 pm S 1.9 4.1----30.20- 34.2- 25.0---
2024-02-20 10:12 pm S 1.9 2.9----30.20- 34.7- 25.7---
2024-02-20 10:06 pmSSE 1.9 2.9----30.20- 35.4- 26.2---
2024-02-20 10:00 pmSSE 1.9 2.9----30.20+0.00 34.9- 26.4---
2024-02-20 09:54 pmSSE 1.9 2.9----30.21- 34.7- 26.8---
2024-02-20 09:48 pmSSE 1.9 2.9----30.21- 34.9- 26.4---
2024-02-20 09:42 pmSSE 1.9 2.9----30.21- 34.3- 26.2---
2024-02-20 09:36 pmSSE 1.0 1.9----30.21- 34.0- 26.1---
2024-02-20 09:30 pmSSE 1.9 2.9----30.21- 34.2- 26.2---
2024-02-20 09:24 pmSSE 1.9 2.9----30.21- 34.3- 26.4---
2024-02-20 09:18 pmSSE 1.9 2.9----30.21- 34.3- 26.4---
2024-02-20 09:12 pmSSE 1.9 1.9----30.21- 34.3- 26.2---
2024-02-20 09:06 pmSSE 1.9 2.9----30.21- 34.5- 26.4---
2024-02-20 09:00 pmSSE 1.9 2.9----30.21+0.01 34.7- 26.6---
2024-02-20 08:54 pmSSE 1.9 2.9----30.21- 34.7- 26.2---
2024-02-20 08:48 pmSSE 1.9 4.1----30.21- 34.3- 26.1---
2024-02-20 08:42 pmSSE 1.9 2.9----30.21- 34.7- 26.1---
2024-02-20 08:36 pmSSE 1.9 2.9----30.21- 34.0- 25.3---
2024-02-20 08:30 pmSSE 1.9 2.9----30.21- 34.3- 25.7---
2024-02-20 08:24 pm SE 2.9 2.9----30.21- 34.7- 25.7---
2024-02-20 08:18 pmSSE 1.9 2.9----30.21- 34.7- 25.7---
2024-02-20 08:12 pmSSE 1.9 2.9----30.21- 34.5- 25.2---
2024-02-20 08:06 pmSSE 1.9 1.9----30.21- 34.3- 25.2---
2024-02-20 08:00 pmSSE 1.9 2.9----30.21+0.00 34.7- 25.3---
2024-02-20 07:54 pmSSE 1.9 2.9----30.21- 34.5- 24.8---
2024-02-20 07:48 pmSSE 1.9 2.9----30.21- 34.7- 24.8---
2024-02-20 07:42 pm S 1.0 4.1----30.21- 34.7- 24.4---
2024-02-20 07:36 pm SE 1.9 6.0----30.20- 35.4- 25.0---
2024-02-20 07:30 pmESE 4.1 6.0----30.20- 35.4- 24.6---
2024-02-20 07:24 pmESE 5.1 8.0----30.20- 35.8- 24.8---
2024-02-20 07:18 pmESE 5.1 8.0----30.20- 36.0- 24.6---
2024-02-20 07:12 pmESE 5.1 7.0----30.20- 36.1- 24.8---
2024-02-20 07:06 pmESE 6.0 8.0----30.20- 36.3- 25.0---
2024-02-20 07:00 pm SE 4.1 8.0----30.20+0.00 36.0- 25.2---
2024-02-20 06:54 pm SE 5.1 8.9----30.20- 35.8- 25.2---
2024-02-20 06:48 pmESE 6.0 11.1----30.20- 35.8- 25.2---
2024-02-20 06:42 pmESE 8.0 9.9----30.19- 35.8- 25.0---
2024-02-20 06:36 pmESE 8.0 12.0----30.20- 35.8- 25.0---
2024-02-20 06:30 pmESE 7.0 9.9----30.20- 35.8- 25.0---
2024-02-20 06:24 pmESE 7.0 11.1----30.19- 35.8- 24.8---
2024-02-20 06:18 pmESE 7.0 12.0----30.19- 36.0- 24.8---
2024-02-20 06:00 pmESE 8.0 11.1----30.20-0.02 36.0- 24.4---
2024-02-20 05:54 pmESE 9.9 13.0----30.20- 36.1- 24.1---
2024-02-20 05:48 pmESE 7.0 11.1----30.20- 36.3- 23.7---
2024-02-20 05:42 pmESE 7.0 11.1----30.20- 36.5- 23.4---
2024-02-20 05:36 pmESE 6.0 9.9----30.20- 36.9- 23.2---
2024-02-20 05:30 pm E 7.0 11.1----30.21- 37.2- 23.7---
2024-02-20 05:24 pm E 6.0 11.1----30.21- 37.0- 23.9---
2024-02-20 05:18 pm E 6.0 9.9----30.21- 37.0- 24.4---
2024-02-20 05:12 pm E 6.0 8.9----30.21- 36.7- 24.4---
2024-02-20 05:06 pm E 6.0 8.0----30.21- 36.9- 24.6---
2024-02-20 05:00 pm E 5.1 8.0----30.21-0.02 36.7- 25.0---
2024-02-20 04:54 pm E 5.1 7.0----30.21- 36.7- 25.2---